Weather History for KJMS - March, 2013

Change the Weather History Date:

Sunday, March 17, 2013

  Actual Average Record
Temperature  
Mean Temperature 12 °F 28 °F  
Max Temperature 25 °F 37 °F 71 °F (2012)
Min Temperature -2 °F 19 °F -16 °F (1902)
Degree Days  
Heating Degree Days 53 37  
Month to date heating degree days 849 693  
Since 1 July heating degree days 7596 7452  
Cooling Degree Days 0 0  
Month to date cooling degree days 0 0  
Year to date cooling degree days 0 0  
Moisture  
Dew Point 7 °F    
Average Humidity 82    
Maximum Humidity 92    
Minimum Humidity 72    
Precipitation  
Precipitation 0.02 in 0.02 in 0.44 in (1952)
Month to date precipitation 0.22 0.41  
Year to date precipitation 0.71 1.26  
Sea Level Pressure  
Sea Level Pressure 29.81 in    
Wind  
Wind Speed 17 mph (SE)    
Max Wind Speed 26 mph    
Max Gust Speed 33 mph    
Visibility 3 miles    
Events Fog , Snow    
T = Trace of Precipitation, MM = Missing Value Source: NWS Daily Summary

Daily Weather History Graph

Daily Weather History Graph

Search for Another Location

Airport or City:

Trip Planner

Search our weather history database for the weather conditions in past years. The results will help you decide how hot, cold, wet, or windy it might be!

Date:

Astronomy

Mar. 17, 2013 Rise Set
Actual Time 7:43 AM CDT 7:43 PM CDT
Civil Twilight 7:12 AM CDT 8:13 PM CDT
Nautical Twilight 6:37 AM CDT 8:49 PM CDT
Astronomical Twilight 6:00 AM CDT 9:25 PM CDT
Moon 10:35 AM CDT (3/17) 1:13 AM CDT (3/17)
Length of Visible Light 13h 01m
Length of Day
12h 00m
Waxing Crescent, 31% of the Moon is Illuminated
Mar 17
Waxing Crescent
Mar 19
First Quarter
Mar 27
Full
Apr 2
Last Quarter
Apr 10
New

Hourly Weather History & Observations

Time (CDT) Temp. Windchill Dew Point Humidity Pressure Visibility Wind Dir Wind Speed Gust Speed Precip Events Conditions
12:56 AM -0.9 °F -15.3 °F -6.0 °F 79% 30.31 in 10.0 mi East 8.1 mph - N/A   Partly Cloudy
1:56 AM -2.0 °F -17.7 °F -6.0 °F 83% 30.30 in 10.0 mi ESE 9.2 mph - N/A   Mostly Cloudy
2:56 AM -0.0 °F -15.3 °F -8.0 °F 69% 30.28 in 10.0 mi ESE 9.2 mph - N/A   Overcast
3:56 AM -0.0 °F -18.7 °F -6.0 °F 76% 30.25 in 10.0 mi ESE 13.8 mph - N/A   Overcast
4:56 AM -0.0 °F -18.7 °F -5.1 °F 79% 30.22 in 10.0 mi ESE 13.8 mph - N/A   Overcast
5:56 AM -0.0 °F -18.0 °F -6.0 °F 76% 30.20 in 5.0 mi SE 12.7 mph - 0.00 in Snow Light Snow
6:56 AM 1.0 °F -17.3 °F -5.1 °F 75% 30.17 in 3.0 mi SE 13.8 mph - 0.00 in Snow Light Snow
7:04 AM 1.4 °F -16.1 °F -5.8 °F 72% 30.05 in 2.0 mi SE 12.7 mph - 0.00 in Snow Light Snow
7:23 AM 1.4 °F -15.3 °F -5.8 °F 72% 30.03 in 4.0 mi SE 11.5 mph - 0.00 in Snow Light Snow
7:51 AM 1.4 °F -16.1 °F -4.0 °F 78% 30.02 in 2.0 mi SE 12.7 mph - 0.00 in Snow Light Snow
7:56 AM 1.0 °F -16.6 °F -4.0 °F 79% 30.14 in 2.0 mi SE 12.7 mph - 0.00 in Snow Light Snow
8:16 AM 1.4 °F -18.2 °F -4.0 °F 78% 30.00 in 1.8 mi SE 16.1 mph - 0.00 in Snow Light Snow
8:21 AM 1.4 °F -18.2 °F -4.0 °F 78% 29.99 in 3.0 mi SE 16.1 mph - 0.00 in Snow Light Snow
8:56 AM 1.9 °F -18.7 °F -2.9 °F 80% 30.09 in 4.0 mi SE 18.4 mph - 0.00 in   Overcast
9:24 AM 3.2 °F -16.5 °F -2.2 °F 78% 29.95 in 6.0 mi SE 17.3 mph - 0.00 in   Overcast
9:56 AM 3.9 °F -16.1 °F -0.9 °F 80% 30.06 in 3.0 mi SE 18.4 mph - 0.00 in Snow Light Snow
10:56 AM 6.1 °F -12.2 °F -0.0 °F 76% 30.02 in 6.0 mi SE 16.1 mph - 0.00 in   Haze
11:56 AM 8.1 °F -11.2 °F 3.0 °F 80% 29.98 in 4.0 mi SE 19.6 mph - N/A   Haze
12:23 PM 8.6 °F -10.5 °F 3.2 °F 79% 29.85 in 2.5 mi SE 19.6 mph - 0.00 in Snow Light Snow
12:56 PM 10.9 °F -9.2 °F 5.0 °F 77% 29.94 in 2.0 mi SE 24.2 mph 28.8 mph 0.00 in Snow Light Snow
1:22 PM 12.2 °F -5.8 °F 6.8 °F 79% 29.81 in 3.0 mi SSE 19.6 mph 28.8 mph 0.00 in Snow Blowing Snow
1:56 PM 12.9 °F -4.9 °F 8.1 °F 81% 29.90 in 3.0 mi SE 19.6 mph - 0.00 in Snow Light Snow
2:56 PM 15.1 °F -2.9 °F 9.0 °F 77% 29.83 in 5.0 mi SE 21.9 mph 29.9 mph 0.00 in   Haze
3:37 PM 15.8 °F -1.5 °F 8.6 °F 73% 29.70 in 2.5 mi SE 20.7 mph 29.9 mph 0.00 in   Overcast
3:46 PM 14.0 °F -4.7 °F 8.6 °F 79% 29.69 in 2.5 mi SE 23.0 mph 31.1 mph 0.00 in Snow Blowing Snow
3:56 PM 14.0 °F -5.8 °F 9.0 °F 80% 29.80 in 2.5 mi SE 26.5 mph 29.9 mph 0.00 in Snow Blowing Snow
4:15 PM 14.0 °F -5.1 °F 8.6 °F 79% 29.68 in 1.8 mi SE 24.2 mph 31.1 mph 0.00 in   Overcast
4:28 PM 14.0 °F -5.1 °F 10.4 °F 86% 29.67 in 1.0 mi SE 24.2 mph 28.8 mph 0.00 in Snow Light Snow
4:56 PM 15.1 °F -3.3 °F 10.0 °F 80% 29.74 in 1.0 mi SE 23.0 mph - 0.00 in Snow Light Snow
5:11 PM 15.8 °F -1.5 °F 10.4 °F 79% 29.65 in 1.2 mi SE 20.7 mph 31.1 mph 0.00 in Snow Light Snow
5:19 PM 15.8 °F -2.7 °F 10.4 °F 79% 29.64 in 0.5 mi SE 24.2 mph 31.1 mph 0.00 in Snow Snow
5:25 PM 15.8 °F -2.3 °F 10.4 °F 79% 29.64 in 0.2 mi SE 23.0 mph 31.1 mph 0.00 in Fog , Snow Heavy Snow
5:52 PM 15.8 °F -1.9 °F 10.4 °F 79% 29.62 in 0.2 mi SE 21.9 mph 32.2 mph 0.00 in Fog , Snow Light Snow
5:56 PM 15.1 °F -2.9 °F 12.0 °F 88% 29.73 in 0.5 mi SE 21.9 mph 28.8 mph 0.00 in Fog , Snow Light Snow
6:05 PM 15.8 °F -0.6 °F 12.2 °F 86% 29.62 in 0.8 mi SE 18.4 mph - 0.00 in   Overcast
6:16 PM 15.8 °F -1.5 °F 12.2 °F 86% 29.61 in 0.5 mi ESE 20.7 mph 28.8 mph 0.00 in Fog Light Freezing Fog
6:56 PM 17.1 °F -0.3 °F 12.9 °F 84% 29.70 in 0.8 mi SE 21.9 mph - 0.00 in   Overcast
7:06 PM 17.6 °F 1.3 °F 12.2 °F 79% 29.59 in 1.0 mi SE 19.6 mph 28.8 mph N/A   Overcast
7:22 PM 17.6 °F 0.9 °F 14.0 °F 86% 29.58 in 0.5 mi ESE 20.7 mph 29.9 mph 0.00 in Fog , Snow Light Snow
7:32 PM 17.6 °F 0.5 °F 14.0 °F 86% 29.57 in 0.2 mi SE 21.9 mph - 0.00 in Fog , Snow Snow
7:51 PM 17.6 °F 0.9 °F 15.8 °F 93% 29.57 in 0.5 mi SE 20.7 mph - 0.00 in Fog , Snow Snow
7:56 PM 19.0 °F 3.2 °F 15.1 °F 85% 29.66 in 0.5 mi SE 19.6 mph - 0.00 in Fog , Snow Snow
8:56 PM 19.9 °F 4.3 °F 17.1 °F 89% 29.64 in 0.5 mi SE 19.6 mph - 0.01 in Fog , Snow Light Snow
9:06 PM 21.2 °F 5.2 °F 17.6 °F 86% 29.54 in 1.0 mi SE 21.9 mph - 0.00 in Snow Light Snow
9:32 PM 21.2 °F 6.0 °F 17.6 °F 86% 29.53 in 2.0 mi SE 19.6 mph - 0.00 in Snow Light Snow
9:41 PM 21.2 °F 5.2 °F 17.6 °F 86% 29.53 in 1.5 mi SE 21.9 mph 27.6 mph 0.00 in Snow Light Snow
9:56 PM 21.9 °F 7.3 °F 19.0 °F 89% 29.62 in 2.0 mi SE 18.4 mph - 0.00 in Snow Light Snow
10:04 PM 21.2 °F 6.0 °F 19.4 °F 93% 29.52 in 1.8 mi SE 19.6 mph - 0.00 in Snow Light Snow
10:25 PM 21.2 °F 6.0 °F 19.4 °F 93% 29.51 in 2.0 mi SE 19.6 mph 26.5 mph 0.01 in Snow Light Snow
10:37 PM 21.2 °F 6.0 °F 19.4 °F 93% 29.51 in 1.8 mi SE 19.6 mph 28.8 mph 0.01 in Snow Light Snow
10:56 PM 23.0 °F 9.2 °F 19.9 °F 88% 29.59 in 1.5 mi SE 17.3 mph 26.5 mph 0.01 in Snow Light Snow
11:40 PM 24.8 °F 12.9 °F 21.2 °F 86% 29.48 in 2.0 mi SE 13.8 mph - 0.00 in Snow Light Snow
11:56 PM 24.1 °F 12.0 °F 21.9 °F 91% 29.56 in 2.5 mi SE 13.8 mph - 0.00 in Snow Light Snow